EW9763 Weather Reports


Display with metric or nautical units.
time (UTC)temp
F
wind
direction
speed
MPH
gust
MPH
rain 1hr
in
rain 24hr
in
rain mn
in
humidity
%
barometer
mb
20260505130245 47 284 5.0 15.0 0.00 0.00 0.00 55 1006.6
20260505125017 47 223 3.0 8.0 0.00 0.00 0.00 56 1006.4
20260505124515 47 278 3.0 8.0 0.00 0.00 0.00 57 1006.3
20260505124010 46 263 4.0 9.0 0.00 0.00 0.00 58 1006.2
20260505123510 46 0 4.0 9.0 0.00 0.00 0.00 58 1006.2
20260505123240 46 272 4.0 9.0 0.00 0.00 0.00 57 1006.1
20260505122510 46 281 3.0 8.0 0.00 0.00 0.00 58 1006.0
20260505122007 45 294 4.0 9.0 0.00 0.00 0.00 58 1005.9
20260505121512 45 254 4.0 9.0 0.00 0.00 0.00 58 1005.7
20260505121505 45 266 3.0 9.0 0.00 0.00 0.00 58 1005.8
20260505120506 45 278 3.0 9.0 0.00 0.00 0.00 58 1005.7
20260505120005 45 307 3.0 9.0 0.00 0.00 0.00 58 1005.7
20260505115503 44 271 3.0 7.0 0.00 0.00 0.00 58 1005.6
20260505115003 44 294 3.0 8.0 0.00 0.00 0.00 58 1005.6
20260505114504 44 254 3.0 8.0 0.00 0.00 0.00 57 1005.6
20260505114003 44 292 4.0 8.0 0.00 0.00 0.00 58 1005.6
20260505113502 44 294 4.0 8.0 0.00 0.00 0.00 57 1005.6
20260505113000 44 304 3.0 8.0 0.00 0.00 0.00 58 1005.6
20260505112458 43 284 3.0 6.0 0.00 0.00 0.00 58 1005.6
20260505111956 43 247 2.0 6.0 0.00 0.00 0.00 58 1005.6
20260505111505 43 261 2.0 5.0 0.00 0.00 0.00 58 1005.5
20260505110955 43 271 2.0 4.0 0.00 0.00 0.00 58 1005.4
20260505110455 42 286 2.0 4.0 0.00 0.00 0.00 57 1005.4
20260505101947 43 313 2.0 4.0 0.00 0.00 0.00 57 1004.9
20260505101445 43 301 2.0 5.0 0.00 0.00 0.00 56 1004.9
20260505100943 43 294 2.0 5.0 0.00 0.00 0.00 56 1004.9
20260505100443 43 252 2.0 7.0 0.00 0.00 0.00 57 1004.9
20260505095945 43 281 2.0 7.0 0.00 0.00 0.00 58 1004.9
20260505095444 43 259 2.0 6.0 0.00 0.00 0.00 57 1004.9
20260505094941 43 267 2.0 6.0 0.00 0.00 0.00 57 1004.9
20260505094440 43 288 2.0 4.0 0.00 0.00 0.00 57 1004.8
20260505093939 43 273 2.0 4.0 0.00 0.00 0.00 57 1004.8
20260505093440 43 267 2.0 4.0 0.00 0.00 0.00 57 1004.6
20260505092940 43 304 2.0 4.0 0.00 0.00 0.00 57 1004.5
20260505092439 43 276 1.0 4.0 0.00 0.00 0.00 57 1004.5
20260505091940 42 227 1.0 4.0 0.00 0.00 0.00 57 1004.4
20260505091434 42 285 1.0 3.0 0.00 0.00 0.00 57 1004.3
20260505090933 42 300 1.0 3.0 0.00 0.00 0.00 57 1004.1
20260505090702 42 301 1.0 3.0 0.00 0.00 0.00 57 1004.1
20260505085934 42 302 1.0 3.0 0.00 0.00 0.00 58 1003.9
20260505085929 42 300 2.0 3.0 0.00 0.00 0.00 58 1004.0
20260505084923 42 300 1.0 2.0 0.00 0.00 0.00 57 1003.7
20260505084429 42 217 1.0 4.0 0.00 0.00 0.00 58 1003.5
20260505084425 42 293 1.0 3.0 0.00 0.00 0.00 57 1003.6
20260505083422 42 293 2.0 4.0 0.00 0.00 0.00 58 1003.5
20260505082922 43 298 2.0 4.0 0.00 0.00 0.00 58 1003.5
20260505082423 43 306 2.0 4.0 0.00 0.00 0.00 58 1003.5
20260505081916 43 304 2.0 4.0 0.00 0.00 0.00 57 1003.6
20260505081416 44 311 3.0 6.0 0.00 0.00 0.00 55 1003.6
20260505080915 44 313 4.0 6.0 0.00 0.00 0.00 54 1003.5
20260505080415 44 323 5.0 9.0 0.00 0.00 0.00 52 1003.5
20260505075915 45 319 6.0 10.0 0.00 0.00 0.00 52 1003.4
20260505075416 45 313 7.0 14.0 0.00 0.00 0.00 51 1003.3
20260505074910 45 311 8.0 15.0 0.00 0.00 0.00 51 1003.2
20260505074409 45 334 8.0 15.0 0.00 0.00 0.00 50 1003.3
20260505073909 46 318 8.0 12.0 0.00 0.00 0.00 50 1003.2
20260505073409 46 315 9.0 14.0 0.00 0.00 0.00 50 1003.2
20260505072909 46 309 10.0 17.0 0.00 0.00 0.00 50 1003.2
20260505072410 46 338 10.0 20.0 0.00 0.00 0.00 50 1003.2
20260505071904 46 338 9.0 20.0 0.00 0.00 0.00 51 1003.1
20260505071402 46 333 9.0 14.0 0.00 0.00 0.00 53 1003.2
20260505070903 47 334 9.0 14.0 0.00 0.00 0.00 52 1003.3
20260505070635 47 322 9.0 17.0 0.00 0.00 0.00 53 1003.3
20260505065903 47 315 9.0 17.0 0.00 0.00 0.00 54 1003.1
20260505065404 47 323 9.0 16.0 0.00 0.00 0.00 55 1003.2
20260505065131 47 329 9.0 15.0 0.00 0.00 0.00 57 1003.2
20260505064358 48 328 9.0 15.0 0.00 0.00 0.00 57 1003.1
20260505063857 48 331 8.0 13.0 0.00 0.00 0.00 57 1003.1
20260505063359 48 314 9.0 16.0 0.00 0.00 0.00 57 1003.0
20260505062857 48 309 9.0 16.0 0.00 0.00 0.00 57 1003.0
20260505062359 49 327 9.0 13.0 0.00 0.00 0.00 57 1002.9
20260505061852 49 306 9.0 14.0 0.00 0.00 0.00 56 1002.9
20260505061621 49 291 11.0 18.0 0.00 0.00 0.00 55 1002.9
20260505060852 50 314 12.0 18.0 0.00 0.00 0.00 54 1002.7
20260505060350 50 315 12.0 20.0 0.00 0.00 0.00 54 1002.7
20260505055851 50 311 12.0 20.0 0.00 0.00 0.00 54 1002.6
20260505055352 50 330 11.0 18.0 0.00 0.00 0.00 54 1002.5
20260505055117 50 316 11.0 18.0 0.00 0.00 0.00 53 1002.4
20260505054347 50 304 12.0 18.0 0.00 0.00 0.00 53 1002.4
20260505053844 51 304 12.0 20.0 0.00 0.00 0.00 53 1002.2
20260505053343 51 321 12.0 20.0 0.00 0.00 0.00 52 1002.0
20260505052848 51 310 12.0 18.0 0.00 0.00 0.00 51 1002.0
20260505052345 51 316 12.0 18.0 0.00 0.00 0.00 52 1001.9
20260505051840 52 328 13.0 22.0 0.00 0.00 0.00 52 1001.8
20260505051341 52 325 14.0 22.0 0.00 0.00 0.00 51 1001.7
20260505050841 52 319 12.0 21.0 0.00 0.00 0.00 51 1001.6
20260505050341 52 320 10.0 19.0 0.00 0.00 0.00 53 1001.5
20260505041340 55 315 7.0 17.0 0.00 0.00 0.00 52 1000.5
20260505040834 55 283 6.0 13.0 0.00 0.00 0.00 51 1000.4
20260505040332 55 300 7.0 14.0 0.00 0.00 0.00 51 1000.3
20260505035828 56 265 10.0 16.0 0.00 0.00 0.00 50 1000.2
20260505035330 56 306 12.0 20.0 0.00 0.00 0.00 48 1000.1
20260505034829 56 300 12.0 20.0 0.00 0.00 0.00 48 1000.0
20260505034331 56 312 13.0 19.0 0.00 0.00 0.00 48 999.8
20260505033824 56 296 12.0 19.0 0.00 0.00 0.00 48 999.6
20260505033322 56 306 11.0 19.0 0.00 0.00 0.00 49 999.4
20260505033056 56 294 11.0 17.0 0.00 0.00 0.00 49 999.3
20260505032324 57 307 12.0 18.0 0.00 0.00 0.00 49 999.1
20260505032054 57 317 10.0 18.0 0.00 0.00 0.00 49 998.7
20260505031322 57 317 9.0 15.0 0.00 0.00 0.00 50 998.5
20260505030823 57 327 9.0 14.0 0.00 0.00 0.00 49 998.3
20260505030324 57 295 10.0 17.0 0.00 0.00 0.00 48 998.1
20260505025823 57 315 9.0 17.0 0.00 0.00 0.00 48 998.1
20260505025322 58 303 9.0 16.0 0.00 0.00 0.00 47 997.9
20260505024824 58 311 9.0 17.0 0.00 0.00 0.00 46 998.0
20260505024319 58 314 11.0 19.0 0.00 0.00 0.00 45 997.9
20260505024049 59 309 11.0 20.0 0.00 0.00 0.00 44 998.0
20260505023319 59 313 10.0 20.0 0.00 0.00 0.00 43 997.9
20260505022819 59 322 11.0 21.0 0.00 0.00 0.00 43 997.8
20260505022551 60 309 12.0 21.0 0.00 0.00 0.00 43 997.9
20260505021825 60 292 11.0 22.0 0.00 0.00 0.00 43 997.8
20260505021315 60 299 11.0 22.0 0.00 0.00 0.00 43 997.7
20260505021046 60 306 12.0 18.0 0.00 0.00 0.00 44 997.6
20260505020317 60 291 13.0 24.0 0.00 0.00 0.00 43 997.4
20260505015820 61 306 13.0 24.0 0.00 0.00 0.00 43 997.3
20260505015315 61 302 12.0 19.0 0.00 0.00 0.00 45 997.1
20260505015048 62 312 10.0 18.0 0.00 0.00 0.00 46 996.9
20260505014311 62 313 9.0 18.0 0.00 0.00 0.00 45 996.8
20260505013814 63 319 8.0 17.0 0.00 0.00 0.00 43 996.6
20260505013312 63 291 8.0 17.0 0.00 0.00 0.00 41 996.5
20260505012811 63 279 7.0 15.0 0.00 0.00 0.00 41 996.4
20260505012310 63 301 7.0 19.0 0.00 0.00 0.00 41 996.3
20260505011813 63 286 7.0 19.0 0.00 0.00 0.00 40 996.3
20260505011540 64 294 7.0 18.0 0.00 0.00 0.00 40 996.3
20260505010808 64 265 8.0 18.0 0.00 0.00 0.00 39 996.2
20260505010308 64 279 9.0 17.0 0.00 0.00 0.00 39 996.1
20260505010037 64 290 8.0 17.0 0.00 0.00 0.00 39 996.0
20260505005306 65 312 8.0 17.0 0.00 0.00 0.00 39 996.0
20260505004813 65 279 8.0 17.0 0.00 0.00 0.00 40 996.0
20260505004302 65 303 8.0 15.0 0.00 0.00 0.00 39 995.9
20260505003809 66 313 9.0 21.0 0.00 0.00 0.00 39 995.7
20260505003302 66 288 9.0 21.0 0.00 0.00 0.00 38 995.6
20260505002803 66 302 7.0 18.0 0.00 0.00 0.00 38 995.5
20260505002304 66 278 6.0 12.0 0.00 0.00 0.00 39 995.4
20260505001759 67 291 6.0 16.0 0.00 0.00 0.00 39 995.4
20260505001258 67 288 7.0 16.0 0.00 0.00 0.00 38 995.2
20260505001029 67 296 8.0 16.0 0.00 0.00 0.00 37 995.1
20260505000254 67 285 9.0 18.0 0.00 0.00 0.00 36 995.1
20260504235755 67 294 9.0 20.0 0.00 0.00 0.00 36 995.0
20260504235254 67 281 10.0 21.0 0.00 0.00 0.00 36 994.9
20260504234753 68 317 9.0 21.0 0.00 0.00 0.00 36 994.7
20260504234250 68 294 9.0 17.0 0.00 0.00 0.00 37 994.8
20260504233750 68 288 9.0 19.0 0.00 0.00 0.00 37 994.7
20260504233249 68 253 9.0 20.0 0.00 0.00 0.00 37 994.7
20260504232748 69 286 8.0 20.0 0.00 0.00 0.00 37 994.6
20260504232251 69 313 10.0 17.0 0.00 0.00 0.00 38 994.7
20260504232247 69 292 8.0 15.0 0.00 0.00 0.00 38 994.7
20260504231247 69 308 10.0 19.0 0.00 0.00 0.00 37 994.6
20260504230747 69 307 8.0 19.0 0.00 0.00 0.00 38 994.6
20260504230242 69 296 8.0 15.0 0.00 0.00 0.00 40 994.6
20260504225740 69 280 9.0 19.0 0.00 0.00 0.00 40 994.6
20260504225239 69 286 12.0 20.0 0.00 0.00 0.00 40 994.6
20260504225008 70 323 13.0 21.0 0.00 0.00 0.00 40 994.6
20260504224237 70 291 12.0 21.0 0.00 0.00 0.00 39 994.6
20260504223737 71 295 13.0 25.0 0.00 0.00 0.00 41 994.5
20260504223230 71 298 14.0 25.0 0.00 0.00 0.00 39 994.3
20260504222731 72 328 12.0 22.0 0.00 0.00 0.00 40 994.3
20260504222231 73 319 10.0 21.0 0.00 0.00 0.00 39 994.3
20260504221731 73 290 11.0 20.0 0.00 0.00 0.00 38 994.2
20260504221231 73 277 11.0 21.0 0.00 0.00 0.00 38 994.1
20260504220731 73 290 11.0 22.0 0.00 0.00 0.00 38 994.0
20260504220231 73 292 11.0 22.0 0.00 0.00 0.00 39 994.0
20260504215728 74 284 11.0 22.0 0.00 0.00 0.00 39 993.9
20260504215230 74 262 10.0 21.0 0.00 0.00 0.00 39 993.9
20260504214727 74 290 10.0 20.0 0.00 0.00 0.00 39 993.6
20260504214226 74 280 10.0 24.0 0.00 0.00 0.00 38 993.5
20260504213957 75 311 11.0 25.0 0.00 0.00 0.00 38 993.5
20260504213224 75 261 12.0 25.0 0.00 0.00 0.00 38 993.5
20260504212726 76 294 13.0 24.0 0.00 0.00 0.00 37 993.4
20260504212220 76 265 13.0 24.0 0.00 0.00 0.00 36 993.2
20260504211948 76 271 12.0 25.0 0.00 0.00 0.00 37 993.2
20260504211220 76 235 11.0 25.0 0.00 0.00 0.00 36 993.2
20260504210718 76 278 11.0 20.0 0.00 0.00 0.00 37 993.1
20260504210218 77 254 10.0 21.0 0.00 0.00 0.00 37 993.2
20260504205720 77 271 10.0 23.0 0.00 0.00 0.00 38 993.1
20260504205213 78 317 8.0 23.0 0.00 0.00 0.00 39 993.1
20260504204713 78 255 7.0 19.0 0.00 0.00 0.00 39 993.0
20260504204212 77 290 8.0 19.0 0.00 0.00 0.00 39 993.0
20260504203943 77 287 7.0 18.0 0.00 0.00 0.00 40 993.0
20260504203212 77 236 9.0 18.0 0.00 0.00 0.00 38 992.9
20260504202712 77 278 9.0 17.0 0.00 0.00 0.00 39 993.1
20260504202212 77 240 8.0 24.0 0.00 0.00 0.00 40 993.1
20260504201942 76 313 7.0 17.0 0.00 0.00 0.00 41 993.1
20260504201822 76 242 8.0 17.0 0.00 0.00 0.00 40 993.2
20260504200706 76 244 9.0 18.0 0.00 0.00 0.00 39 993.3
20260504200207 77 232 8.0 18.0 0.00 0.00 0.00 38 993.3
20260504195706 77 295 8.0 23.0 0.00 0.00 0.00 39 993.3
20260504195202 77 291 8.0 23.0 0.00 0.00 0.00 39 993.3
20260504194702 76 284 7.0 18.0 0.00 0.00 0.00 40 993.3
20260504194203 76 271 6.0 15.0 0.00 0.00 0.00 41 993.4
20260504193934 75 268 7.0 15.0 0.00 0.00 0.00 41 993.4
20260504193200 75 243 7.0 15.0 0.00 0.00 0.00 41 993.4
20260504192701 75 273 7.0 15.0 0.00 0.00 0.00 40 993.5
20260504192155 75 246 7.0 15.0 0.00 0.00 0.00 40 993.4
20260504191926 75 248 8.0 20.0 0.00 0.00 0.00 41 993.4
20260504191425 75 233 8.0 20.0 0.00 0.00 0.00 39 993.4
20260504190925 76 285 8.0 21.0 0.00 0.00 0.00 39 993.4
20260504190159 76 242 9.0 21.0 0.00 0.00 0.00 39 993.3
20260504190154 76 251 8.0 21.0 0.00 0.00 0.00 40 993.4
20260504185149 75 268 9.0 21.0 0.00 0.00 0.00 40 993.3
20260504184649 76 248 8.0 16.0 0.00 0.00 0.00 39 993.4
20260504184148 76 253 9.0 20.0 0.00 0.00 0.00 38 993.3
20260504183648 76 275 9.0 20.0 0.00 0.00 0.00 38 993.3
20260504183422 76 227 10.0 19.0 0.00 0.00 0.00 39 993.3
20260504182649 77 239 10.0 21.0 0.00 0.00 0.00 38 993.3
20260504182142 77 290 9.0 21.0 0.00 0.00 0.00 38 993.3
20260504181643 76 253 10.0 21.0 0.00 0.00 0.00 37 993.3
20260504181142 76 235 10.0 21.0 0.00 0.00 0.00 39 993.5
20260504180642 76 301 9.0 20.0 0.00 0.00 0.00 37 993.2
20260504180142 76 249 9.0 19.0 0.00 0.00 0.00 38 993.5
20260504175643 76 277 10.0 20.0 0.00 0.00 0.00 38 993.4
20260504175140 76 198 11.0 23.0 0.00 0.00 0.00 38 993.4
20260504174637 75 241 11.0 23.0 0.00 0.00 0.00 38 993.6
20260504174143 75 253 10.0 21.0 0.00 0.00 0.00 37 993.6
20260504174137 75 260 10.0 22.0 0.00 0.00 0.00 38 993.7
20260504173136 75 232 11.0 22.0 0.00 0.00 0.00 37 993.6
20260504172635 75 308 10.0 31.0 0.00 0.00 0.00 39 993.9
20260504172136 75 255 10.0 31.0 0.00 0.00 0.00 39 994.0
20260504171636 75 238 8.0 33.0 0.00 0.00 0.00 39 994.2
20260504171407 74 214 7.0 33.0 0.00 0.00 0.00 40 994.0
20260504170636 74 269 9.0 22.0 0.00 0.00 0.00 42 994.1
20260504170137 73 199 10.0 22.0 0.00 0.00 0.00 42 994.0
20260504160124 70 239 11.0 32.0 0.00 0.00 0.00 46 994.7
20260504151120 68 196 9.0 19.0 0.00 0.00 0.00 48 995.5
20260504150621 67 215 9.0 22.0 0.00 0.00 0.00 48 995.6
20260504150119 67 215 9.0 22.0 0.00 0.00 0.00 48 995.6
20260504141111 64 180 9.0 21.0 0.00 0.00 0.00 51 996.3
20260504140613 64 214 10.0 24.0 0.00 0.00 0.00 53 996.4
20260504140112 63 234 9.0 24.0 0.00 0.00 0.00 52 996.4